Regional Weather Roundup
Issued by NWS Green Bay, WI

Home | Current Version | Previous Version | Graphics & Text | Print | Product List | Glossary Off
Versions: 1 2 3 4 5 6 7 8 9 10 11 12 13 14 15 16 17 18 19 20 21 22 23 24 25 26 27 28 29 30 31 32 33 34 35 36 37 38 39 40 41 42 43 44 45 46 47 48 49 50

000
ASUS43 KGRB 221511
RWRGRB

NORTH-CENTRAL AND NORTHEAST WISCONSIN REGIONAL WEATHER ROUNDUP
NATIONAL WEATHER SERVICE GREEN BAY WI
1000 AM CDT FRI JUL 22 2016

WIZ005-009-010>012-018-019-221600-
NORTH CENTRAL WISCONSIN

CITY           SKY/WX    TMP DP  RH WIND       PRES   REMARKS
IRONWOOD       SUNNY     79  64  61 W7        29.96F
MANITOWISH WTR SUNNY     80  64  58 SW5       30.02S
ARBOR VITAE    SUNNY     80  64  57 W5        30.03S
EAGLE RIVER    SUNNY     79  60  51 W6        30.02S
LAND O LAKES   SUNNY     80  57  45 W7        30.02F
RHINELANDER    SUNNY     80  64  58 SW6       30.04R
PHILLIPS       SUNNY     77  67  70 CALM      30.03S
ANTIGO         SUNNY     79  67  65 CALM      30.04S
TOMAHAWK       SUNNY     77  64  63 CALM      30.04F
MERRILL        SUNNY     78  68  71 CALM      30.03F
$$

WIZ013-073-221600-
NORTHEAST WISCONSIN

CITY           SKY/WX    TMP DP  RH WIND       PRES   REMARKS
IRON MOUNTAIN  SUNNY     82  62  50 VRB7      29.97R
MARINETTE      SUNNY     83  67  58 VRB3      29.96F
OCONTO         SUNNY     82  68  62 NW5       29.96F
$$

WIZ017-030-035>037-045-221600-
CENTRAL WISCONSIN

CITY           SKY/WX    TMP DP  RH WIND       PRES   REMARKS
MEDFORD        SUNNY     78  70  77 CALM      30.03S
WAUSAU         SUNNY     80  67  64 VRB3      30.00F
MOSINEE        SUNNY     79  68  69 VRB3      30.02F
MARSHFIELD     SUNNY     83  65  54 CALM      30.01F
WISC RAPIDS    SUNNY     82  69  64 VRB3      30.02F
STEVENS POINT  SUNNY     79  68  67 N5        30.01F
WAUPACA        SUNNY     84  70  61 NW5       30.00R
SHAWANO        SUNNY     83  68  60 CALM      29.99S
CLINTONVILLE   SUNNY     81  66  61 NE3       29.99S
WAUTOMA        MOSUNNY   80  74  81 NW5       30.00F
$$

WIZ038-039-048-051-221600-
FOX VALLEY

CITY           SKY/WX    TMP DP  RH WIND       PRES   REMARKS
NWS GREEN BAY  SUNNY     82  71  69 NW5       29.97F
APPLETON       MOSUNNY   79  68  69 VRB6      29.98S
OSHKOSH        SUNNY     79  70  74 W7        29.99S
FOND DU LAC    MOSUNNY   80  72  76 VRB3      30.00S
$$

WIZ022-050-052-221600-
EAST CENTRAL WISCONSIN

CITY           SKY/WX    TMP DP  RH WIND       PRES   REMARKS
EPHRAIM        FAIR      78  67  69 NW3       29.96S
WASHINGTON ISL NOT AVBL
STURGEON BAY   SUNNY     81  66  60 NW6       29.98S
MANITOWOC      SUNNY     82  68  62 N7        29.98R
SHEBOYGAN      SUNNY     81  71  71 W7        29.98S
$$

LMZ563-521-522-541>543-221600-
LAKESHORE

STATION/POSITION TIME  TEMP    WIND        PRES    VSBY  WAVE
                       AIR SEA DIR/SP/G                  HT/PER
                 (UTC) (F)     (DEG/KT/KT) (MB)    (MI)  (FT/S)
SHEBOYGAN LKSHOR 1500   72      60/  3/  3 1015.1R
KEWAUNEE LKSHORE 1400   79     310/  4/  8 1014.2R
NORTHPORT PIER   1400   79     290/  4/ 11 1013.9S
N MID LAKE BUOY  1450   69 67  260/  8/ 10 1013.1S         2/ 5
S GREEN BAY BUOY 1400   72 71  200/  6/  8   N/A
CHAMBERS ISLAND  1400   79     250/  5/  6 1014.6R
MENOMINEE LKSHOR 1400   78     320/  4/  6 1013.7R
$$




USA.gov is the U.S. government's official web portal to all federal, state and local government web resources and services.